Weather Roundup
Issued by NWS Chicago, IL

Home | Current Version | Previous Version | Text Only | Print | Product List | Glossary Off
Versions: 1 2 3 4 5 6 7 8 9 10 11 12 13 14 15 16 17 18 19 20 21 22 23 24 25 26 27 28 29 30 31 32 33 34 35 36 37 38 39 40 41 42 43 44 45 46 47 48 49 50

000
NZUS59 KLOT 281358
HRRLOT

CHICAGO AREA WEATHER ROUNDUP
NATIONAL WEATHER SERVICE CHICAGO/ROMEOVILLE IL
800 AM CST WED JAN 28 2015

NOTE: "FAIR" INDICATES FEW OR NO CLOUDS BELOW 12,000 FEET WITH NO
SIGNIFICANT WEATHER AND/OR OBSTRUCTIONS TO VISIBILITY.

* THESE STATIONS ARE NOT UNDER NWS QUALITY CONTROL. THEY ALSO MAY NOT
  REPORT WEATHER SUCH AS PRECIPITATION OR FOG.

ILZ005-006-012>014-019>023-281500-
NORTHEAST ILLINOIS

CITY           SKY/WX    TMP DP  RH WIND       PRES   REMARKS
OHARE          MOCLDY    22  16  78 S7        30.28S WCI  13
MIDWAY         MOCLDY    24  16  71 S8        30.29S WCI  15
AURORA         CLEAR     22  16  78 SE7       30.27S WCI  13
WAUKEGAN       PTCLDY    23  19  85 S8        30.26S WCI  14
DUPAGE AIRPORT PTCLDY    22  16  78 S7        30.26F WCI  13
WHEELING       PTCLDY    22  17  81 S5        30.29F WCI  16
NORTHERLY IS     N/A     24  14  65 S9          N/A  WCI  15
$$

WIZ051-052-058>065-066-070>072-281500-
SOUTHEAST WISCONSIN

CITY           SKY/WX    TMP DP  RH WIND       PRES   REMARKS
MILWAUKEE      MOCLDY    24  18  77 S6        30.25F WCI  17
KENOSHA*       CLOUDY    24  20  84 S7        30.26S WCI  16
RACINE*        MOCLDY    24  19  81 SW3       30.27F
WAUKESHA       PTCLDY    19  16  86 S5        30.25S WCI  13
$$

INZ001>003-010>013-019-020-281500-
NORTHWEST INDIANA

CITY           SKY/WX    TMP DP  RH WIND       PRES   REMARKS
GARY*          PTCLDY    23  12  63 SE9       30.32R WCI  13
MICHIGAN CITY* NOT AVBL
RENSSELAER*    NOT AVBL
$$

LMZ740>746-281500-
SOUTHERN LAKE MICHIGAN

STATION/POSITION TIME  SKY/WX   TEMP WIND        PRES    VSBY
                                AIR  DIR/SP/G
                 (UTC)          (F)  (DEG/KT/KT) (MB)    (MI)
HARRISON CRIB    1300            25  170/ 13/ 15   N/A
BURNHAM HARBOR   1300            24  170/  6/  8   N/A
CALUMET HARBOR   1300            22  180/  5/  8   N/A
BURNS HARBOR     NOT AVBL
MICHIGAN CITY    1300            21  140/  7/  9   N/A
$$

ABBREVIATIONS USED IN REMARKS
   TC - TEMPERATURE IN CELSIUS
  WCI - WIND CHILL INDEX
   HX - HEAT INDEX
  VSB - VISIBILITY
$$



USA.gov is the U.S. government's official web portal to all federal, state and local government web resources and services.